W6KRP-12 Weather Reports


time (UTC)temp
F
wind
direction
speed
knots
gust
knots
rain 1hr
in
rain 24hr
in
rain mn
in
humidity
%
barometer
mb
20260906112006 71 225 0.0 0.0 0.00 0.01 0.01 98 1008.4
20260906111006 71 45 0.0 0.9 0.00 0.01 0.01 98 1008.3
20260906110006 71 45 0.0 0.9 0.01 0.01 0.01 98 1008.0
20260906105006 71 135 0.0 0.0 0.01 0.01 0.01 98 1008.1
20260906103006 71 135 0.0 0.0 0.01 0.01 0.01 98 1007.9
20260906102006 71 135 0.0 0.0 0.01 0.01 0.01 98 1007.9
20260906101006 72 135 0.0 0.0 0.01 0.01 0.01 98 1007.7
20260906095006 72 180 0.0 0.0 0.00 0.00 0.00 98 1007.5
20260906094006 72 0 0.0 0.0 0.00 0.00 0.00 98 1007.2
20260906093006 72 315 0.0 0.0 0.00 0.00 0.00 98 1007.2
20260906092006 72 315 0.0 0.9 0.00 0.00 0.00 98 1007.1
20260906091006 72 272 0.0 0.9 0.00 0.00 0.00 98 1007.1
20260906090006 72 315 0.0 0.9 0.00 0.00 0.00 98 1007.0
20260906084006 73 315 0.0 0.0 0.00 0.00 0.00 98 1007.1
20260906083006 73 315 0.0 0.9 0.00 0.00 0.00 98 1007.1
20260906082006 73 227 0.0 1.7 0.00 0.00 0.00 98 1007.3
20260906080006 73 311 0.0 0.9 0.00 0.00 0.00 98 1007.2
20260906074006 73 315 0.0 0.0 0.00 0.00 0.00 98 1007.3
20260906073006 73 315 0.0 0.0 0.00 0.00 0.00 98 1007.5
20260906072006 73 315 0.0 0.0 0.00 0.00 0.00 98 1007.6
20260906071006 73 315 0.0 0.0 0.00 0.00 0.00 98 1007.9
20260906065006 74 270 0.0 1.7 0.00 0.00 0.00 98 1008.0
20260906064006 74 270 0.9 2.6 0.00 0.00 0.00 98 1007.8
20260906063005 74 270 0.0 1.7 0.00 0.00 0.00 98 1007.9
20260906061006 74 225 0.0 0.9 0.00 0.00 0.00 98 1008.1
20260906053006 74 225 0.0 2.6 0.00 0.00 0.00 98 1008.2
20260906052006 74 270 0.9 2.6 0.00 0.00 0.00 98 1008.2
20260906051006 74 270 0.9 1.7 0.00 0.00 0.00 98 1008.0
20260906050006 74 225 0.0 0.9 0.00 0.00 0.00 98 1008.0
20260906045006 74 270 0.0 0.9 0.00 0.00 0.00 98 1008.3
20260906044006 74 358 0.0 0.9 0.00 0.00 0.00 98 1008.7
20260906043006 75 313 0.0 0.9 0.00 0.00 0.00 98 1008.8
20260906042006 75 0 0.0 0.9 0.00 0.00 0.00 98 1008.9
20260906041006 75 45 0.9 1.7 0.00 0.00 0.00 98 1008.9
20260906035006 75 90 0.0 0.9 0.00 0.00 0.00 98 1009.1
20260906034006 74 90 0.0 0.9 0.00 0.00 0.00 98 1009.0
20260906032007 74 90 0.0 0.9 0.00 0.00 0.00 97 1008.9
20260906031006 74 270 0.0 0.0 0.00 0.00 0.00 97 1008.7
20260906030006 74 45 0.0 0.9 0.00 0.00 0.00 97 1008.7
20260906024006 75 45 0.0 1.7 0.00 0.00 0.00 96 1008.5
20260906023006 75 88 0.9 2.6 0.00 0.00 0.00 96 1008.5
20260906021006 75 315 0.0 0.9 0.00 0.00 0.00 95 1008.1
20260906020006 75 90 0.0 0.0 0.00 0.00 0.00 95 1008.0
20260906015006 75 90 0.0 0.0 0.00 0.00 0.00 94 1008.1
20260906014007 75 90 0.0 0.9 0.00 0.00 0.00 94 1008.2
20260906013007 75 46 0.9 2.6 0.00 0.00 0.00 94 1008.3
20260906012006 76 45 0.9 1.7 0.00 0.00 0.00 93 1008.4
20260906011006 76 90 0.0 0.9 0.00 0.00 0.00 93 1008.0
20260906010006 76 45 0.0 1.7 0.00 0.00 0.00 92 1008.0
20260906005006 76 314 0.9 2.6 0.00 0.00 0.00 92 1007.8
20260906004006 76 45 0.9 2.6 0.00 0.00 0.00 93 1008.0
20260906003007 76 47 0.0 2.6 0.00 0.00 0.00 93 1007.7
20260906002006 76 225 0.0 2.6 0.00 0.00 0.00 91 1008.0
20260906001006 76 180 0.0 5.2 0.00 0.00 0.00 89 1008.4
20260906000006 77 90 2.6 5.2 0.00 0.00 0.00 89 1008.7
20260905235006 78 135 0.0 2.6 0.00 0.00 0.00 86 1008.0
20260905234006 80 138 0.0 5.2 0.00 0.00 0.00 81 1008.0
20260905233006 81 90 2.6 2.6 0.00 0.00 0.00 78 1008.3
20260905232006 82 129 0.9 7.8 0.00 0.00 0.00 74 1007.5
20260905231007 83 2 3.5 13.0 0.00 0.00 0.00 68 1007.4
20260905230007 86 135 2.6 13.0 0.00 0.00 0.00 64 1008.1
20260905225007 88 357 0.9 2.6 0.00 0.00 0.00 77 1007.8
20260905224006 88 180 0.0 0.0 0.00 0.00 0.00 75 1007.2
20260905223007 89 180 0.0 0.0 0.00 0.00 0.00 72 1006.8
20260905222007 90 180 0.0 0.9 0.00 0.00 0.00 70 1006.5
20260905221006 90 183 0.0 0.9 0.00 0.00 0.00 68 1006.5
20260905220006 91 180 0.0 0.0 0.00 0.00 0.00 69 1006.3
20260905215006 91 180 0.0 0.0 0.00 0.00 0.00 68 1005.8
20260905214006 91 180 0.0 0.0 0.00 0.00 0.00 66 1006.2
20260905213006 92 180 0.0 0.9 0.00 0.00 0.00 65 1006.6
20260905212006 92 225 0.0 0.9 0.00 0.00 0.00 63 1006.8
20260905211006 93 225 0.0 0.0 0.00 0.00 0.00 63 1006.6
20260905210006 93 180 0.0 0.9 0.00 0.00 0.00 61 1006.1
20260905205006 95 180 0.9 5.2 0.00 0.00 0.00 58 1006.5
20260905204006 96 273 2.6 6.1 0.00 0.00 0.00 55 1006.7
20260905203006 96 270 0.9 5.2 0.00 0.00 0.00 54 1006.4
20260905201006 97 180 0.0 2.6 0.00 0.00 0.00 56 1006.2
20260905200006 98 338 1.7 4.3 0.00 0.00 0.00 53 1006.3
20260905193006 102 315 0.9 5.2 0.00 0.00 0.00 47 1006.8
20260905192006 104 220 0.0 2.6 0.00 0.00 0.00 47 1007.1
20260905190006 102 187 0.9 5.2 0.00 0.00 0.00 50 1007.6
20260905185006 100 270 0.9 7.0 0.00 0.00 0.00 51 1007.9
20260905184006 98 270 2.6 5.2 0.00 0.00 0.00 52 1008.0
20260905183006 100 275 2.6 5.2 0.00 0.00 0.00 49 1008.2
20260905182006 100 190 1.7 7.0 0.00 0.00 0.00 47 1008.5
20260905180006 99 232 2.6 7.0 0.00 0.00 0.00 49 1008.7
20260905175006 100 312 2.6 5.2 0.00 0.00 0.00 49 1008.7
20260905174005 98 138 0.9 6.1 0.00 0.00 0.00 54 1008.8
20260905173006 97 93 2.6 6.1 0.00 0.00 0.00 55 1008.9
20260905172006 96 188 1.7 7.0 0.00 0.00 0.00 57 1008.9
20260905170006 94 273 0.9 5.2 0.00 0.00 0.00 64 1009.1
20260905165006 93 263 0.9 7.0 0.00 0.00 0.00 64 1009.4
20260905163006 91 268 0.9 6.1 0.00 0.00 0.00 71 1009.6
20260905162006 90 311 0.0 7.0 0.00 0.00 0.00 71 1010.0
20260905161006 90 312 0.9 5.2 0.00 0.00 0.00 72 1010.0
20260905160006 89 225 0.9 5.2 0.00 0.00 0.00 73 1010.0
20260905155006 89 187 0.9 5.2 0.00 0.00 0.00 74 1010.3
20260905153006 88 268 4.3 7.8 0.00 0.00 0.00 74 1010.4
20260905151006 87 270 3.5 7.0 0.00 0.00 0.00 76 1010.6
20260905150006 87 228 1.7 6.1 0.00 0.00 0.00 79 1010.8
20260905145007 86 270 4.3 6.1 0.00 0.00 0.00 79 1010.8
20260905144006 85 270 2.6 7.0 0.00 0.00 0.00 81 1011.0
20260905143006 85 278 2.6 7.0 0.00 0.00 0.00 82 1011.0
20260905141006 84 276 3.5 7.8 0.00 0.00 0.00 84 1011.2
20260905140006 83 278 3.5 7.8 0.00 0.00 0.00 86 1011.1
20260905135006 83 312 3.5 6.1 0.00 0.00 0.00 87 1011.1
20260905134006 82 270 1.7 7.0 0.00 0.00 0.00 89 1011.0
20260905131006 81 274 2.6 7.0 0.00 0.00 0.00 93 1011.2
20260905130006 81 270 0.9 5.2 0.00 0.00 0.00 95 1011.1
20260905125006 80 229 2.6 6.1 0.00 0.00 0.00 97 1011.1
20260905124007 79 270 1.7 4.3 0.00 0.00 0.00 98 1011.2
20260905122006 78 270 0.0 2.6 0.00 0.00 0.00 98 1011.1
20260905121006 77 269 0.9 1.7 0.00 0.00 0.00 98 1011.1
20260905115006 76 225 0.0 0.9 0.00 0.00 0.00 98 1010.9
20260905114006 76 270 0.0 0.0 0.00 0.00 0.00 98 1010.8
20260905113007 76 270 0.0 0.0 0.00 0.00 0.00 98 1010.7